TimeEDT,TemperatureF,Dew PointF,Humidity,Sea Level PressureIn,VisibilityMPH,Wind Direction,Wind SpeedMPH,Gust SpeedMPH,PrecipitationIn,Events,Conditions,WindDirDegrees,DateUTC
12:53 AM,61.0,57.9,90,30.19,9.0,Calm,Calm,-,N/A,,Mostly Cloudy,0,2012-10-04 04:53:00
1:53 AM,60.1,57.9,93,30.19,7.0,Calm,Calm,-,N/A,,Mostly Cloudy,0,2012-10-04 05:53:00
2:53 AM,59.0,57.9,96,30.19,7.0,Calm,Calm,-,N/A,,Overcast,0,2012-10-04 06:53:00
3:53 AM,60.1,57.9,93,30.19,7.0,Calm,Calm,-,N/A,,Mostly Cloudy,0,2012-10-04 07:53:00
4:53 AM,59.0,57.9,96,30.20,7.0,Calm,Calm,-,N/A,,Clear,0,2012-10-04 08:53:00
5:53 AM,57.9,57.0,97,30.20,6.0,Calm,Calm,-,N/A,,Partly Cloudy,0,2012-10-04 09:53:00
6:53 AM,57.9,57.0,97,30.22,10.0,Calm,Calm,-,N/A,,Partly Cloudy,0,2012-10-04 10:53:00
7:53 AM,59.0,57.0,93,30.23,10.0,Calm,Calm,-,N/A,,Clear,0,2012-10-04 11:53:00
8:53 AM,60.1,57.9,93,30.25,10.0,Calm,Calm,-,N/A,,Clear,0,2012-10-04 12:53:00
9:53 AM,64.0,55.9,75,30.25,10.0,SW,5.8,-,N/A,,Clear,230,2012-10-04 13:53:00
10:53 AM,69.1,55.9,63,30.25,10.0,WSW,4.6,-,N/A,,Clear,250,2012-10-04 14:53:00
11:53 AM,70.0,53.1,55,30.25,10.0,WSW,9.2,17.3,N/A,,Scattered Clouds,240,2012-10-04 15:53:00
12:53 PM,73.0,54.0,51,30.24,10.0,SSW,11.5,16.1,N/A,,Mostly Cloudy,200,2012-10-04 16:53:00
1:53 PM,73.9,54.0,50,30.22,10.0,SW,12.7,19.6,N/A,,Mostly Cloudy,220,2012-10-04 17:53:00
2:53 PM,73.0,53.1,49,30.20,10.0,Variable,3.5,-,N/A,,Overcast,0,2012-10-04 18:53:00
3:53 PM,73.0,53.1,49,30.19,10.0,SSW,5.8,-,N/A,,Mostly Cloudy,210,2012-10-04 19:53:00
4:53 PM,73.0,55.0,53,30.19,10.0,SW,5.8,-,N/A,,Partly Cloudy,230,2012-10-04 20:53:00
5:53 PM,72.0,55.0,55,30.18,10.0,SSW,5.8,-,N/A,,Clear,210,2012-10-04 21:53:00
6:53 PM,69.1,55.0,61,30.19,10.0,South,5.8,-,N/A,,Clear,190,2012-10-04 22:53:00
7:53 PM,64.9,57.0,75,30.19,10.0,Calm,Calm,-,N/A,,Clear,0,2012-10-04 23:53:00
8:53 PM,61.0,55.9,83,30.19,9.0,Calm,Calm,-,N/A,,Clear,0,2012-10-05 00:53:00
9:53 PM,60.1,55.9,86,30.19,7.0,Calm,Calm,-,N/A,,Clear,0,2012-10-05 01:53:00
10:53 PM,60.1,54.0,80,30.19,10.0,South,4.6,-,N/A,,Clear,190,2012-10-05 02:53:00
11:53 PM,59.0,54.0,83,30.19,9.0,SSW,3.5,-,N/A,,Clear,200,2012-10-05 03:53:00